Private Wetterstation Wechselburg
Wetterdaten: Sonntag, 25.02.2018
Datum Zeit Temp. +2m Bodentemp. Temp.+5cm Temp. Wind Windchill X Diff Temp. Feuchte +2m Feuchte +5cm Luftdruck Regen Wind Richtung Richtung Sonnenschein Taupunkt Windchill Windben
25.02.2018 00:00 -7,9 C 1,0 C -8,3 C -8,5 C -9,8 C 0,0 C 69 % 75 % 1031,0 hPa 0,0 l/m 0,0 km/h (0 Bft) NO 45 0 min -12,6 C -9,8 C 0,0 km/h (0 Bft)
25.02.2018 00:05 -8,1 C 1,0 C -8,5 C -8,7 C -9,8 C 0,0 C 69 % 75 % 1031,0 hPa 0,0 l/m 0,2 km/h (0 Bft) NO 45 0 min -12,8 C -9,8 C 1,6 km/h (1 Bft)
25.02.2018 00:11 -8,1 C 1,0 C -8,5 C -8,7 C -9,8 C 0,0 C 70 % 76 % 1031,0 hPa 0,0 l/m 0,5 km/h (0 Bft) N 0 0 min -12,6 C -9,8 C 2,3 km/h (1 Bft)
25.02.2018 00:22 -8,0 C 1,0 C -8,3 C -8,6 C -9,8 C 0,0 C 70 % 76 % 1031,0 hPa 0,0 l/m 1,6 km/h (1 Bft) NO 45 0 min -12,5 C -9,8 C 1,9 km/h (1 Bft)
25.02.2018 00:31 -8,1 C 1,0 C -8,5 C -8,7 C -9,9 C 0,0 C 70 % 76 % 1031,0 hPa 0,0 l/m 0,3 km/h (0 Bft) NO 45 0 min -12,6 C -9,9 C 1,6 km/h (1 Bft)
25.02.2018 00:37 -8,1 C 1,0 C -8,7 C -8,7 C -10,0 C 0,0 C 71 % 77 % 1031,0 hPa 0,0 l/m 0,0 km/h (0 Bft) NO 45 0 min -12,4 C -10,0 C 0,0 km/h (0 Bft)
25.02.2018 00:44 -8,3 C 1,0 C -8,8 C -8,9 C -10,2 C 0,0 C 71 % 77 % 1031,3 hPa 0,0 l/m 0,0 km/h (0 Bft) NO 45 0 min -12,6 C -10,2 C 0,0 km/h (0 Bft)
25.02.2018 00:50 -8,3 C 1,0 C -8,9 C -9,0 C -10,3 C 0,0 C 71 % 77 % 1031,3 hPa 0,0 l/m 0,2 km/h (0 Bft) NO 45 0 min -12,6 C -10,3 C 1,6 km/h (1 Bft)
25.02.2018 00:55 -8,5 C 0,9 C -8,7 C -9,1 C -10,2 C 0,0 C 71 % 77 % 1031,3 hPa 0,0 l/m 0,6 km/h (0 Bft) NO 45 0 min -12,8 C -10,2 C 2,7 km/h (1 Bft)
25.02.2018 01:00 -8,5 C 0,9 C -8,9 C -9,1 C -10,2 C 0,0 C 71 % 77 % 1031,3 hPa 0,0 l/m 0,8 km/h (0 Bft) NO 45 0 min -12,8 C -10,2 C 0,0 km/h (0 Bft)
25.02.2018 01:05 -8,6 C 1,0 C -8,9 C -9,2 C -10,3 C 0,0 C 72 % 77 % 1031,3 hPa 0,0 l/m 0,2 km/h (0 Bft) O-NO 67 0 min -12,7 C -10,3 C 0,0 km/h (0 Bft)
25.02.2018 01:10 -8,5 C 0,9 C -8,9 C -9,1 C -10,3 C 0,0 C 72 % 78 % 1031,3 hPa 0,0 l/m 0,2 km/h (0 Bft) NO 45 0 min -12,6 C -10,3 C 0,0 km/h (0 Bft)
25.02.2018 01:15 -8,5 C 1,0 C -8,8 C -9,1 C -10,3 C 0,0 C 73 % 78 % 1031,3 hPa 0,0 l/m 1,0 km/h (0 Bft) NO 45 0 min -12,4 C -10,3 C 3,1 km/h (1 Bft)
25.02.2018 01:20 -8,5 C 0,9 C -8,8 C -9,1 C -10,2 C 0,0 C 73 % 78 % 1031,3 hPa 0,0 l/m 1,3 km/h (1 Bft) O-NO 67 0 min -12,4 C -10,2 C 1,9 km/h (1 Bft)
25.02.2018 01:25 -8,5 C 0,9 C -8,9 C -9,1 C -10,2 C 0,0 C 73 % 78 % 1031,3 hPa 0,0 l/m 1,6 km/h (1 Bft) NO 45 0 min -12,4 C -10,2 C 2,3 km/h (1 Bft)
25.02.2018 01:30 -8,5 C 1,0 C -9,0 C -9,1 C -10,2 C 0,0 C 73 % 78 % 1031,3 hPa 0,0 l/m 1,4 km/h (1 Bft) NO 45 0 min -12,4 C -10,2 C 0,0 km/h (0 Bft)
25.02.2018 01:35 -8,5 C 0,9 C -8,9 C -9,1 C -10,3 C 0,0 C 73 % 79 % 1031,3 hPa 0,0 l/m 1,6 km/h (1 Bft) O-NO 67 0 min -12,4 C -10,3 C 2,1 km/h (1 Bft)
25.02.2018 01:40 -8,5 C 0,9 C -8,9 C -9,1 C -10,3 C 0,0 C 73 % 78 % 1031,3 hPa 0,0 l/m 1,8 km/h (1 Bft) O-NO 67 0 min -12,4 C -10,3 C 2,3 km/h (1 Bft)
25.02.2018 01:45 -8,5 C 0,9 C -8,9 C -9,1 C -10,4 C 0,0 C 73 % 79 % 1031,3 hPa 0,0 l/m 1,9 km/h (1 Bft) O-NO 67 0 min -12,4 C -10,4 C 3,4 km/h (1 Bft)
25.02.2018 01:50 -8,5 C 0,9 C -8,9 C -9,4 C -11,1 C 0,0 C 73 % 79 % 1031,3 hPa 0,0 l/m 2,4 km/h (1 Bft) O-NO 67 0 min -12,4 C -11,1 C 2,6 km/h (1 Bft)
25.02.2018 01:55 -8,5 C 0,9 C -8,8 C -9,4 C -11,2 C 0,0 C 73 % 79 % 1031,3 hPa 0,0 l/m 2,7 km/h (1 Bft) NO 45 0 min -12,4 C -11,2 C 4,7 km/h (1 Bft)
25.02.2018 02:00 -8,5 C 0,9 C -8,7 C -9,4 C -11,2 C 0,0 C 73 % 78 % 1031,8 hPa 0,0 l/m 2,7 km/h (1 Bft) O-NO 67 0 min -12,4 C -11,2 C 3,1 km/h (1 Bft)
25.02.2018 02:05 -8,5 C 0,9 C -8,7 C -9,4 C -11,3 C 0,0 C 73 % 78 % 1031,8 hPa 0,0 l/m 2,9 km/h (1 Bft) NO 45 0 min -12,4 C -11,3 C 2,1 km/h (1 Bft)
25.02.2018 02:11 -8,5 C 0,9 C -8,7 C -9,3 C -11,0 C 0,0 C 73 % 78 % 1031,8 hPa 0,0 l/m 2,6 km/h (1 Bft) N 0 0 min -12,4 C -11,0 C 2,1 km/h (1 Bft)
25.02.2018 02:22 -8,5 C 0,9 C -8,7 C -9,3 C -11,0 C 0,0 C 73 % 77 % 1031,0 hPa 0,0 l/m 2,6 km/h (1 Bft) O-NO 67 0 min -12,4 C -11,0 C 2,6 km/h (1 Bft)
25.02.2018 02:31 -8,5 C 0,9 C -8,8 C -9,4 C -11,3 C 0,0 C 72 % 77 % 1031,0 hPa 0,0 l/m 2,9 km/h (1 Bft) NO 45 0 min -12,6 C -11,3 C 3,9 km/h (1 Bft)
25.02.2018 02:37 -8,5 C 0,9 C -8,8 C -9,5 C -11,4 C 0,0 C 72 % 77 % 1031,0 hPa 0,0 l/m 3,1 km/h (1 Bft) NO 45 0 min -12,6 C -11,4 C 6,6 km/h (2 Bft)
25.02.2018 02:42 -8,5 C 0,9 C -8,9 C -9,5 C -11,4 C 0,0 C 72 % 77 % 1031,0 hPa 0,0 l/m 3,1 km/h (1 Bft) O-NO 67 0 min -12,6 C -11,4 C 3,2 km/h (1 Bft)
25.02.2018 02:50 -8,5 C 0,9 C -8,9 C -9,6 C -11,8 C 0,0 C 72 % 77 % 1031,0 hPa 0,0 l/m 3,2 km/h (1 Bft) O-NO 67 0 min -12,6 C -11,8 C 3,9 km/h (1 Bft)
25.02.2018 02:55 -8,7 C 0,9 C -8,9 C -9,7 C -11,8 C 0,0 C 72 % 77 % 1031,0 hPa 0,0 l/m 3,2 km/h (1 Bft) NO 45 0 min -12,8 C -11,8 C 3,5 km/h (1 Bft)
25.02.2018 03:00 -8,7 C 0,9 C -8,9 C -9,8 C -11,9 C 0,0 C 72 % 77 % 1031,0 hPa 0,0 l/m 3,4 km/h (1 Bft) O-NO 67 0 min -12,8 C -11,9 C 4,2 km/h (1 Bft)
25.02.2018 03:05 -8,8 C 0,9 C -8,9 C -9,8 C -11,9 C 0,0 C 72 % 77 % 1031,0 hPa 0,0 l/m 3,4 km/h (1 Bft) NO 45 0 min -12,9 C -11,9 C 2,3 km/h (1 Bft)
25.02.2018 03:10 -8,8 C 0,9 C -9,1 C -9,7 C -11,6 C 0,0 C 72 % 77 % 1031,0 hPa 0,0 l/m 2,9 km/h (1 Bft) O-NO 67 0 min -12,9 C -11,6 C 4,0 km/h (1 Bft)
25.02.2018 03:15 -8,9 C 0,9 C -9,1 C -9,6 C -10,9 C 0,0 C 72 % 78 % 1031,0 hPa 0,0 l/m 2,1 km/h (1 Bft) NO 45 0 min -13,0 C -10,9 C 1,8 km/h (1 Bft)
25.02.2018 03:20 -8,9 C 0,9 C -9,2 C -9,6 C -11,1 C 0,0 C 72 % 78 % 1031,0 hPa 0,0 l/m 2,1 km/h (1 Bft) NO 45 0 min -13,0 C -11,1 C 3,5 km/h (1 Bft)
25.02.2018 03:25 -8,9 C 0,9 C -9,1 C -9,9 C -12,0 C 0,0 C 73 % 78 % 1031,0 hPa 0,0 l/m 2,9 km/h (1 Bft) O-NO 67 0 min -12,8 C -12,0 C 5,1 km/h (1 Bft)
25.02.2018 03:30 -9,0 C 0,9 C -9,2 C -10,1 C -12,4 C 0,0 C 73 % 78 % 1031,0 hPa 0,0 l/m 3,5 km/h (1 Bft) NO 45 0 min -12,9 C -12,4 C 3,9 km/h (1 Bft)
25.02.2018 03:35 -8,9 C 0,9 C -9,2 C -10,0 C -12,3 C 0,0 C 73 % 78 % 1031,0 hPa 0,0 l/m 3,4 km/h (1 Bft) O-NO 67 0 min -12,8 C -12,3 C 3,4 km/h (1 Bft)
25.02.2018 03:40 -8,9 C 0,9 C -9,3 C -9,9 C -12,0 C 0,0 C 73 % 78 % 1031,0 hPa 0,0 l/m 3,1 km/h (1 Bft) NO 45 0 min -12,8 C -12,0 C 3,4 km/h (1 Bft)
25.02.2018 03:45 -9,1 C 0,9 C -9,3 C -9,9 C -11,6 C 0,0 C 72 % 78 % 1031,0 hPa 0,0 l/m 2,4 km/h (1 Bft) N-NO 22 0 min -13,2 C -11,6 C 0,0 km/h (0 Bft)
25.02.2018 03:50 -9,2 C 0,9 C -9,5 C -9,8 C -11,0 C 0,0 C 72 % 78 % 1031,0 hPa 0,0 l/m 1,4 km/h (1 Bft) NO 45 0 min -13,3 C -11,0 C 1,6 km/h (1 Bft)
25.02.2018 03:55 -9,3 C 0,9 C -9,7 C -10,0 C -11,3 C 0,0 C 72 % 78 % 1031,0 hPa 0,0 l/m 0,6 km/h (0 Bft) NO 45 0 min -13,4 C -11,3 C 0,0 km/h (0 Bft)
25.02.2018 04:00 -9,3 C 0,9 C -9,7 C -10,0 C -11,5 C 0,0 C 72 % 78 % 1031,0 hPa 0,0 l/m 0,6 km/h (0 Bft) NO 45 0 min -13,4 C -11,5 C 4,2 km/h (1 Bft)
25.02.2018 04:05 -9,5 C 0,9 C -9,7 C -10,2 C -11,5 C 0,0 C 73 % 79 % 1031,0 hPa 0,0 l/m 1,6 km/h (1 Bft) NO 45 0 min -13,4 C -11,5 C 3,4 km/h (1 Bft)
25.02.2018 04:11 -9,5 C 0,9 C -9,7 C -10,6 C -12,8 C 0,0 C 73 % 78 % 1031,0 hPa 0,0 l/m 2,9 km/h (1 Bft) N 0 0 min -13,4 C -12,8 C 3,1 km/h (1 Bft)
25.02.2018 04:22 -9,5 C 0,9 C -9,7 C -10,6 C -12,7 C 0,0 C 73 % 78 % 1031,0 hPa 0,0 l/m 2,9 km/h (1 Bft) N-NO 22 0 min -13,4 C -12,7 C 7,6 km/h (2 Bft)
25.02.2018 04:33 -9,5 C 0,9 C -9,7 C -10,5 C -12,6 C 0,0 C 73 % 78 % 1031,0 hPa 0,0 l/m 2,7 km/h (1 Bft) O-NO 67 0 min -13,4 C -12,6 C 1,8 km/h (1 Bft)
25.02.2018 04:36 -9,7 C 0,9 C -9,7 C -10,6 C -12,5 C 0,0 C 72 % 77 % 1031,0 hPa 0,0 l/m 2,6 km/h (1 Bft) NO 45 0 min -13,8 C -12,5 C 5,5 km/h (1 Bft)
25.02.2018 04:42 -9,6 C 0,9 C -9,7 C -10,6 C -12,7 C 0,0 C 72 % 77 % 1030,7 hPa 0,0 l/m 2,9 km/h (1 Bft) NO 45 0 min -13,7 C -12,7 C 3,2 km/h (1 Bft)
25.02.2018 04:45 -9,6 C 0,9 C -9,7 C -10,8 C -13,1 C 0,0 C 72 % 77 % 1030,7 hPa 0,0 l/m 3,5 km/h (1 Bft) N-NO 22 0 min -13,7 C -13,1 C 3,2 km/h (1 Bft)
25.02.2018 04:50 -9,5 C 0,9 C -9,9 C -10,6 C -12,8 C 0,0 C 72 % 77 % 1030,7 hPa 0,0 l/m 3,2 km/h (1 Bft) NO 45 0 min -13,6 C -12,8 C 4,5 km/h (1 Bft)
25.02.2018 04:55 -9,7 C 0,9 C -9,9 C -10,5 C -12,2 C 0,0 C 72 % 77 % 1030,7 hPa 0,0 l/m 2,6 km/h (1 Bft) N-NO 22 0 min -13,8 C -12,2 C 0,0 km/h (0 Bft)
25.02.2018 05:00 -9,7 C 0,9 C -10,1 C -10,3 C -11,4 C 0,0 C 72 % 77 % 1030,7 hPa 0,0 l/m 1,8 km/h (1 Bft) N-NO 22 0 min -13,8 C -11,4 C 0,0 km/h (0 Bft)
25.02.2018 05:05 -9,9 C 0,9 C -10,4 C -10,5 C -11,8 C 0,0 C 72 % 77 % 1030,7 hPa 0,0 l/m 0,0 km/h (0 Bft) NO 45 0 min -14,0 C -11,8 C 0,0 km/h (0 Bft)
25.02.2018 05:10 -10,1 C 0,9 C -10,5 C -10,8 C -12,2 C 0,0 C 71 % 77 % 1030,7 hPa 0,0 l/m 0,0 km/h (0 Bft) NO 45 0 min -14,3 C -12,2 C 0,0 km/h (0 Bft)
25.02.2018 05:15 -10,3 C 0,9 C -10,8 C -11,1 C -12,7 C 0,0 C 71 % 77 % 1030,7 hPa 0,0 l/m 0,0 km/h (0 Bft) N-NO 22 0 min -14,5 C -12,7 C 0,0 km/h (0 Bft)
25.02.2018 05:20 -10,5 C 0,9 C -10,9 C -11,3 C -12,8 C 0,0 C 71 % 78 % 1030,7 hPa 0,0 l/m 0,0 km/h (0 Bft) O-NO 67 0 min -14,7 C -12,8 C 0,0 km/h (0 Bft)
25.02.2018 05:25 -10,6 C 0,9 C -10,9 C -11,4 C -12,9 C 0,0 C 72 % 78 % 1030,7 hPa 0,0 l/m 0,0 km/h (0 Bft) NO 45 0 min -14,6 C -12,9 C 0,0 km/h (0 Bft)
25.02.2018 05:30 -10,5 C 0,9 C -10,9 C -11,4 C -13,1 C 0,0 C 72 % 78 % 1030,7 hPa 0,0 l/m 0,0 km/h (0 Bft) NO 45 0 min -14,5 C -13,1 C 0,0 km/h (0 Bft)
25.02.2018 05:35 -10,7 C 0,9 C -11,2 C -11,6 C -13,3 C 0,0 C 72 % 78 % 1030,7 hPa 0,0 l/m 0,0 km/h (0 Bft) NO 45 0 min -14,7 C -13,3 C 0,0 km/h (0 Bft)
25.02.2018 05:40 -10,9 C 0,9 C -11,3 C -11,7 C -13,4 C 0,0 C 72 % 78 % 1030,7 hPa 0,0 l/m 0,0 km/h (0 Bft) N-NO 22 0 min -14,9 C -13,4 C 0,0 km/h (0 Bft)
25.02.2018 05:45 -10,9 C 0,9 C -11,3 C -11,7 C -13,4 C 0,0 C 73 % 79 % 1030,7 hPa 0,0 l/m 0,0 km/h (0 Bft) N-NO 22 0 min -14,8 C -13,4 C 0,0 km/h (0 Bft)
25.02.2018 05:50 -10,9 C 0,9 C -11,3 C -11,8 C -13,5 C 0,0 C 73 % 79 % 1030,7 hPa 0,0 l/m 0,0 km/h (0 Bft) N 360 0 min -14,8 C -13,5 C 0,0 km/h (0 Bft)
25.02.2018 05:55 -11,1 C 0,9 C -11,5 C -11,9 C -13,6 C 0,0 C 73 % 79 % 1030,7 hPa 0,0 l/m 0,0 km/h (0 Bft) N-NO 22 0 min -15,0 C -13,6 C 0,0 km/h (0 Bft)
25.02.2018 06:00 -11,2 C 0,9 C -11,6 C -12,0 C -13,6 C 0,0 C 73 % 79 % 1030,4 hPa 0,0 l/m 0,0 km/h (0 Bft) N-NO 22 0 min -15,1 C -13,6 C 0,0 km/h (0 Bft)
25.02.2018 06:05 -11,3 C 0,9 C -11,5 C -12,1 C -13,8 C 0,0 C 74 % 80 % 1030,4 hPa 0,0 l/m 0,0 km/h (0 Bft) NO 45 0 min -15,0 C -13,8 C 0,0 km/h (0 Bft)
25.02.2018 06:11 -11,3 C 0,9 C -11,7 C -12,1 C -13,8 C 0,0 C 74 % 80 % 1030,4 hPa 0,0 l/m 0,0 km/h (0 Bft) N 0 0 min -15,0 C -13,8 C 0,0 km/h (0 Bft)
25.02.2018 06:22 -11,3 C 1,0 C -11,9 C -12,1 C -13,8 C 0,0 C 74 % 80 % 1030,4 hPa 0,0 l/m 0,0 km/h (0 Bft) NO 45 0 min -15,0 C -13,8 C 0,0 km/h (0 Bft)
25.02.2018 06:31 -11,5 C 1,0 C -11,9 C -12,3 C -13,9 C 0,0 C 75 % 81 % 1030,4 hPa 0,0 l/m 0,0 km/h (0 Bft) N-NW 337 0 min -15,0 C -13,9 C 0,0 km/h (0 Bft)
25.02.2018 06:37 -11,6 C 1,0 C -11,7 C -12,3 C -13,8 C 0,0 C 75 % 81 % 1030,4 hPa 0,0 l/m 0,0 km/h (0 Bft) N-NO 22 0 min -15,1 C -13,8 C 0,0 km/h (0 Bft)
25.02.2018 06:42 -11,6 C 1,0 C -11,7 C -12,4 C -13,9 C 0,0 C 75 % 81 % 1030,9 hPa 0,0 l/m 0,0 km/h (0 Bft) NW 315 0 min -15,1 C -13,9 C 0,0 km/h (0 Bft)
25.02.2018 06:50 -11,7 C 1,0 C -11,7 C -12,4 C -13,9 C 0,0 C 75 % 81 % 1030,9 hPa 0,0 l/m 0,0 km/h (0 Bft) N-NO 22 0 min -15,2 C -13,9 C 0,0 km/h (0 Bft)
25.02.2018 06:55 -11,7 C 1,0 C -11,9 C -12,4 C -13,9 C 0,0 C 76 % 81 % 1030,9 hPa 0,0 l/m 0,0 km/h (0 Bft) N-NW 337 0 min -15,1 C -13,9 C 0,0 km/h (0 Bft)
25.02.2018 07:00 -11,7 C 1,0 C -12,0 C -12,4 C -13,9 C 0,0 C 76 % 81 % 1031,0 hPa 0,0 l/m 0,0 km/h (0 Bft) N-NO 22 0 min -15,1 C -13,9 C 0,0 km/h (0 Bft)
25.02.2018 07:05 -11,7 C 1,0 C -12,0 C -12,4 C -13,9 C 0,0 C 76 % 82 % 1031,0 hPa 0,0 l/m 0,0 km/h (0 Bft) O-NO 67 0 min -15,1 C -13,9 C 0,0 km/h (0 Bft)
25.02.2018 07:10 -11,7 C 1,0 C -11,9 C -12,4 C -13,8 C 0,0 C 76 % 82 % 1031,0 hPa 0,0 l/m 0,0 km/h (0 Bft) NO 45 0 min -15,1 C -13,8 C 0,0 km/h (0 Bft)
25.02.2018 07:15 -11,7 C 1,0 C -11,9 C -12,4 C -13,8 C 0,0 C 76 % 82 % 1031,0 hPa 0,0 l/m 0,0 km/h (0 Bft) O-NO 67 0 min -15,1 C -13,8 C 0,0 km/h (0 Bft)
25.02.2018 07:20 -11,7 C 1,0 C -11,7 C -12,3 C -13,6 C 0,0 C 77 % 82 % 1031,2 hPa 0,0 l/m 0,0 km/h (0 Bft) O-NO 67 0 min -14,9 C -13,6 C 0,0 km/h (0 Bft)
25.02.2018 07:25 -11,7 C 1,0 C -11,9 C -12,3 C -13,5 C 0,0 C 77 % 82 % 1031,2 hPa 0,0 l/m 0,0 km/h (0 Bft) N 360 0 min -14,9 C -13,5 C 0,0 km/h (0 Bft)
25.02.2018 07:30 -11,7 C 1,0 C -11,7 C -12,3 C -13,5 C 0,0 C 77 % 82 % 1031,2 hPa 0,0 l/m 0,2 km/h (0 Bft) NO 45 0 min -14,9 C -13,5 C 0,0 km/h (0 Bft)
25.02.2018 07:35 -11,7 C 1,0 C -11,7 C -12,1 C -12,8 C 0,0 C 77 % 82 % 1031,2 hPa 0,0 l/m 0,0 km/h (0 Bft) N-NO 22 0 min -14,9 C -12,8 C 0,0 km/h (0 Bft)
25.02.2018 07:40 -11,5 C 1,0 C -11,5 C -11,7 C -12,1 C 0,0 C 78 % 82 % 1031,2 hPa 0,0 l/m 0,0 km/h (0 Bft) NO 45 0 min -14,5 C -12,1 C 0,0 km/h (0 Bft)
25.02.2018 07:45 -11,5 C 1,0 C -11,5 C -11,6 C -11,8 C 0,0 C 78 % 82 % 1031,2 hPa 0,0 l/m 0,0 km/h (0 Bft) N 360 0 min -14,5 C -11,8 C 0,0 km/h (0 Bft)
25.02.2018 07:50 -11,3 C 0,9 C -11,3 C -11,4 C -11,6 C 0,0 C 78 % 82 % 1031,2 hPa 0,0 l/m 0,0 km/h (0 Bft) O-NO 67 0 min -14,4 C -11,6 C 0,0 km/h (0 Bft)
25.02.2018 07:55 -11,3 C 0,9 C -11,2 C -11,1 C -11,1 C 0,2 C 78 % 82 % 1031,2 hPa 0,0 l/m 0,0 km/h (0 Bft) NW 315 0 min -14,4 C -11,1 C 0,0 km/h (0 Bft)
25.02.2018 08:00 -11,2 C 0,9 C -10,9 C -10,9 C -10,9 C 0,3 C 78 % 82 % 1031,2 hPa 0,0 l/m 0,2 km/h (0 Bft) O 90 0 min -14,3 C -10,9 C 0,0 km/h (0 Bft)
25.02.2018 08:05 -10,9 C 0,9 C -10,8 C -10,8 C -10,8 C 0,1 C 79 % 83 % 1031,2 hPa 0,0 l/m 0,2 km/h (0 Bft) N-NO 22 0 min -13,8 C -10,8 C 0,0 km/h (0 Bft)
25.02.2018 08:11 -10,9 C 0,9 C -10,5 C -10,3 C -10,3 C 0,6 C 79 % 83 % 1031,2 hPa 0,0 l/m 0,0 km/h (0 Bft) N 0 0 min -13,8 C -10,3 C 0,0 km/h (0 Bft)
25.02.2018 08:22 -10,7 C 0,9 C -10,3 C -9,5 C -9,5 C 1,2 C 79 % 82 % 1031,2 hPa 0,0 l/m 0,0 km/h (0 Bft) W-NW 292 0 min -13,6 C -9,5 C 0,0 km/h (0 Bft)
25.02.2018 08:30 -10,0 C 0,9 C -9,7 C -7,8 C -7,8 C 2,2 C 79 % 83 % 1031,2 hPa 0,0 l/m 0,2 km/h (0 Bft) NW 315 8 min -12,9 C -7,8 C 1,9 km/h (1 Bft)
25.02.2018 08:41 -9,5 C 0,9 C -8,5 C -8,4 C -8,4 C 1,1 C 79 % 82 % 1031,2 hPa 0,0 l/m 2,7 km/h (1 Bft) NO 45 0 min -12,4 C -8,4 C 4,3 km/h (1 Bft)
25.02.2018 08:45 -9,3 C 0,9 C -7,9 C -8,9 C -8,9 C 0,4 C 79 % 80 % 1031,2 hPa 0,0 l/m 3,4 km/h (1 Bft) O 90 0 min -12,2 C -8,9 C 3,5 km/h (1 Bft)
25.02.2018 08:50 -9,3 C 0,9 C -7,8 C -8,7 C -8,7 C 0,6 C 78 % 79 % 1031,2 hPa 0,0 l/m 3,2 km/h (1 Bft) N-NO 22 0 min -12,4 C -8,7 C 4,7 km/h (1 Bft)
25.02.2018 08:55 -9,1 C 0,9 C -7,9 C -9,3 C -9,6 C 0,0 C 78 % 78 % 1031,2 hPa 0,0 l/m 4,5 km/h (1 Bft) NO 45 0 min -12,2 C -9,6 C 9,0 km/h (2 Bft)
25.02.2018 09:00 -9,0 C 0,9 C -7,6 C -9,1 C -9,4 C 0,0 C 78 % 77 % 1030,9 hPa 0,0 l/m 5,0 km/h (1 Bft) NO 45 0 min -12,1 C -12,3 C 5,6 km/h (1 Bft)
25.02.2018 09:05 -8,9 C 0,9 C -7,4 C -9,2 C -9,9 C 0,0 C 77 % 76 % 1030,9 hPa 0,0 l/m 5,1 km/h (1 Bft) O-NO 67 0 min -12,2 C -12,9 C 9,3 km/h (2 Bft)
25.02.2018 09:10 -8,8 C 0,9 C -7,2 C -9,5 C -10,9 C 0,0 C 77 % 75 % 1030,9 hPa 0,0 l/m 5,8 km/h (2 Bft) O-NO 67 0 min -12,1 C -14,4 C 5,3 km/h (1 Bft)
25.02.2018 09:15 -8,5 C 0,9 C -6,6 C -9,4 C -11,1 C 0,0 C 76 % 74 % 1030,9 hPa 0,0 l/m 5,8 km/h (2 Bft) O-NO 67 0 min -12,0 C -14,7 C 9,8 km/h (2 Bft)
25.02.2018 09:20 -8,5 C 0,9 C -6,5 C -9,1 C -10,4 C 0,0 C 76 % 73 % 1030,9 hPa 0,0 l/m 5,3 km/h (1 Bft) O-NO 67 0 min -12,0 C -13,6 C 6,6 km/h (2 Bft)
25.02.2018 09:25 -8,3 C 0,9 C -6,5 C -9,0 C -10,3 C 0,0 C 76 % 73 % 1030,9 hPa 0,0 l/m 5,6 km/h (1 Bft) NO 45 0 min -11,8 C -13,6 C 9,7 km/h (2 Bft)
25.02.2018 09:30 -8,5 C 0,9 C -6,9 C -9,1 C -10,4 C 0,0 C 75 % 73 % 1030,9 hPa 0,0 l/m 6,0 km/h (2 Bft) O-NO 67 0 min -12,1 C -14,0 C 8,5 km/h (2 Bft)
25.02.2018 09:35 -8,4 C 0,9 C -6,9 C -9,1 C -10,4 C 0,0 C 75 % 73 % 1030,9 hPa 0,0 l/m 5,8 km/h (2 Bft) N-NO 22 0 min -12,0 C -13,9 C 10,3 km/h (2 Bft)
25.02.2018 09:40 -8,5 C 0,9 C -7,3 C -9,2 C -10,5 C 0,0 C 75 % 73 % 1030,9 hPa 0,0 l/m 5,5 km/h (1 Bft) NO 45 0 min -12,1 C -13,8 C 3,9 km/h (1 Bft)
25.02.2018 09:45 -8,3 C 0,9 C -7,3 C -8,7 C -9,6 C 0,0 C 75 % 74 % 1030,9 hPa 0,0 l/m 4,8 km/h (1 Bft) NO 45 0 min -11,9 C -12,4 C 3,9 km/h (1 Bft)
25.02.2018 09:50 -8,1 C 0,9 C -7,4 C -8,5 C -9,4 C 0,0 C 75 % 74 % 1030,9 hPa 0,0 l/m 4,8 km/h (1 Bft) NO 45 0 min -11,7 C -12,1 C 5,1 km/h (1 Bft)
25.02.2018 09:55 -8,1 C 0,9 C -7,5 C -8,7 C -9,9 C 0,0 C 74 % 74 % 1030,9 hPa 0,0 l/m 5,1 km/h (1 Bft) NO 45 0 min -11,9 C -12,9 C 5,0 km/h (1 Bft)
25.02.2018 10:00 -8,1 C 0,9 C -7,4 C -8,5 C -9,2 C 0,0 C 74 % 74 % 1030,9 hPa 0,0 l/m 4,8 km/h (1 Bft) O-NO 67 0 min -11,9 C -11,9 C 6,8 km/h (2 Bft)
25.02.2018 10:05 -7,9 C 0,9 C -7,3 C -8,2 C -8,8 C 0,0 C 73 % 74 % 1030,9 hPa 0,0 l/m 6,0 km/h (2 Bft) NO 45 0 min -11,9 C -12,1 C 5,5 km/h (1 Bft)
25.02.2018 10:11 -7,9 C 0,9 C -7,3 C -8,1 C -8,6 C 0,0 C 73 % 73 % 1030,9 hPa 0,0 l/m 6,4 km/h (2 Bft) N 0 0 min -11,9 C -12,1 C 7,7 km/h (2 Bft)
25.02.2018 10:16 -7,7 C 0,9 C -7,3 C -8,2 C -9,3 C 0,0 C 72 % 73 % 1030,9 hPa 0,0 l/m 5,5 km/h (1 Bft) NO 45 0 min -11,8 C -12,4 C 7,2 km/h (2 Bft)
25.02.2018 10:21 -7,5 C 0,8 C -7,1 C -7,8 C -8,3 C 0,0 C 72 % 73 % 1030,9 hPa 0,0 l/m 4,2 km/h (1 Bft) NW 315 0 min -11,7 C -8,3 C 1,9 km/h (1 Bft)
25.02.2018 10:26 -7,3 C 0,8 C -7,2 C -7,4 C -7,6 C 0,0 C 72 % 74 % 1030,9 hPa 0,0 l/m 3,7 km/h (1 Bft) NO 45 0 min -11,5 C -7,6 C 5,8 km/h (2 Bft)
25.02.2018 10:31 -7,3 C 0,8 C -6,9 C -6,1 C -6,1 C 1,2 C 72 % 74 % 1030,9 hPa 0,0 l/m 3,5 km/h (1 Bft) O-NO 67 0 min -11,5 C -6,1 C 8,2 km/h (2 Bft)
25.02.2018 10:36 -7,1 C 0,8 C -6,8 C -5,9 C -5,9 C 1,2 C 71 % 73 % 1031,3 hPa 0,0 l/m 4,2 km/h (1 Bft) O-NO 67 0 min -11,4 C -5,9 C 3,9 km/h (1 Bft)
25.02.2018 10:41 -6,9 C 0,8 C -6,9 C -6,0 C -6,0 C 0,9 C 71 % 73 % 1031,3 hPa 0,0 l/m 4,3 km/h (1 Bft) NW 315 0 min -11,2 C -6,0 C 3,5 km/h (1 Bft)
25.02.2018 10:46 -6,7 C 0,8 C -6,8 C -6,1 C -6,1 C 0,6 C 70 % 72 % 1031,3 hPa 0,0 l/m 3,5 km/h (1 Bft) O-NO 67 0 min -11,2 C -6,1 C 5,0 km/h (1 Bft)
25.02.2018 10:51 -6,9 C 0,8 C -6,9 C -7,2 C -7,9 C 0,0 C 69 % 71 % 1031,3 hPa 0,0 l/m 5,1 km/h (1 Bft) NO 45 0 min -11,6 C -10,6 C 7,6 km/h (2 Bft)
25.02.2018 10:56 -6,9 C 0,8 C -6,7 C -7,4 C -8,4 C 0,0 C 68 % 70 % 1031,3 hPa 0,0 l/m 6,0 km/h (2 Bft) NO 45 0 min -11,8 C -11,7 C 8,9 km/h (2 Bft)
25.02.2018 11:01 -6,7 C 0,8 C -6,5 C -7,4 C -8,7 C 0,0 C 66 % 68 % 1031,3 hPa 0,0 l/m 6,6 km/h (2 Bft) O-NO 67 0 min -12,0 C -12,3 C 10,0 km/h (2 Bft)
25.02.2018 11:06 -6,5 C 0,8 C -6,4 C -7,1 C -8,2 C 0,0 C 65 % 67 % 1031,3 hPa 0,0 l/m 7,1 km/h (2 Bft) NO 45 0 min -12,0 C -12,0 C 9,0 km/h (2 Bft)
25.02.2018 11:11 -6,3 C 0,8 C -6,3 C -6,7 C -7,6 C 0,0 C 63 % 65 % 1031,3 hPa 0,0 l/m 7,2 km/h (2 Bft) O-NO 67 0 min -12,2 C -11,3 C 6,8 km/h (2 Bft)
25.02.2018 11:16 -6,3 C 0,8 C -6,3 C -6,7 C -7,6 C 0,0 C 63 % 65 % 1031,3 hPa 0,0 l/m 7,2 km/h (2 Bft) O-NO 67 0 min -12,2 C -11,3 C 6,8 km/h (2 Bft)
25.02.2018 11:20 -6,4 C 0,8 C -6,3 C -6,4 C -7,7 C 0,0 C 62 % 65 % 1030,7 hPa 0,0 l/m 7,7 km/h (2 Bft) NO 45 0 min -12,5 C -11,7 C 7,4 km/h (2 Bft)
25.02.2018 11:25 -6,1 C 0,8 C -6,1 C -6,0 C -6,0 C 0,1 C 62 % 65 % 1030,7 hPa 0,0 l/m 6,9 km/h (2 Bft) NO 45 0 min -12,2 C -9,3 C 8,0 km/h (2 Bft)
25.02.2018 11:30 -6,1 C 0,8 C -6,1 C -6,3 C -6,6 C 0,0 C 61 % 64 % 1030,7 hPa 0,0 l/m 6,9 km/h (2 Bft) NO 45 0 min -12,4 C -10,0 C 7,6 km/h (2 Bft)
25.02.2018 11:35 -5,7 C 0,8 C -5,7 C -6,0 C -6,7 C 0,0 C 61 % 64 % 1030,7 hPa 0,0 l/m 7,2 km/h (2 Bft) O-NO 67 0 min -12,0 C -10,3 C 14,0 km/h (3 Bft)
25.02.2018 11:40 -5,7 C 0,8 C -5,9 C -6,1 C -6,8 C 0,0 C 60 % 62 % 1030,9 hPa 0,0 l/m 7,4 km/h (2 Bft) O-NO 67 0 min -12,2 C -10,5 C 8,2 km/h (2 Bft)
25.02.2018 11:45 -5,7 C 0,8 C -5,7 C -6,1 C -6,8 C 0,0 C 58 % 61 % 1030,9 hPa 0,0 l/m 7,9 km/h (2 Bft) O-NO 67 0 min -12,6 C -10,7 C 8,9 km/h (2 Bft)
25.02.2018 11:50 -5,7 C 0,8 C -5,8 C -5,9 C -6,4 C 0,0 C 58 % 61 % 1030,9 hPa 0,0 l/m 7,4 km/h (2 Bft) O-NO 67 0 min -12,6 C -10,0 C 7,4 km/h (2 Bft)
25.02.2018 11:55 -5,7 C 0,8 C -5,6 C -5,8 C -6,1 C 0,0 C 57 % 60 % 1030,9 hPa 0,0 l/m 7,2 km/h (2 Bft) O-NO 67 0 min -12,8 C -9,6 C 8,4 km/h (2 Bft)
25.02.2018 12:00 -5,6 C 0,8 C -5,6 C -5,8 C -6,1 C 0,0 C 56 % 58 % 1030,9 hPa 0,0 l/m 7,4 km/h (2 Bft) NO 45 0 min -12,9 C -9,7 C 10,0 km/h (2 Bft)
25.02.2018 12:05 -5,5 C 0,8 C -5,5 C -4,8 C -5,8 C 0,7 C 55 % 58 % 1030,9 hPa 0,0 l/m 8,5 km/h (2 Bft) N-NO 22 0 min -13,1 C -9,7 C 14,2 km/h (3 Bft)
25.02.2018 12:11 -5,5 C 0,8 C -5,3 C -4,4 C -5,4 C 1,1 C 55 % 59 % 1030,9 hPa 0,0 l/m 8,7 km/h (2 Bft) N 0 0 min -13,1 C -9,3 C 6,6 km/h (2 Bft)
25.02.2018 12:26 -5,6 C 0,8 C -5,3 C -4,1 C -5,2 C 1,5 C 54 % 58 % 1030,9 hPa 0,0 l/m 9,5 km/h (2 Bft) NO 45 0 min -13,4 C -9,4 C 20,8 km/h (4 Bft)
25.02.2018 12:35 -5,3 C 0,8 C -5,3 C -3,8 C -3,8 C 1,5 C 54 % 57 % 1030,9 hPa 0,0 l/m 6,9 km/h (2 Bft) O-NO 67 0 min -13,1 C -6,8 C 12,4 km/h (3 Bft)
25.02.2018 12:40 -5,5 C 0,8 C -5,3 C -3,3 C -4,7 C 2,2 C 54 % 57 % 1030,2 hPa 0,0 l/m 8,7 km/h (2 Bft) O-NO 67 0 min -13,3 C -8,5 C 9,3 km/h (2 Bft)
25.02.2018 12:45 -5,3 C 0,8 C -5,3 C -3,5 C -4,6 C 1,8 C 54 % 57 % 1030,2 hPa 0,0 l/m 9,3 km/h (2 Bft) NO 45 0 min -13,1 C -8,6 C 11,9 km/h (2 Bft)
25.02.2018 12:50 -5,3 C 0,8 C -5,3 C -3,5 C -4,4 C 1,8 C 54 % 57 % 1030,2 hPa 0,0 l/m 8,2 km/h (2 Bft) O-NO 67 0 min -13,1 C -8,0 C 9,0 km/h (2 Bft)
25.02.2018 12:55 -5,5 C 0,8 C -5,3 C -3,6 C -4,9 C 1,9 C 53 % 56 % 1030,2 hPa 0,0 l/m 8,9 km/h (2 Bft) O 90 0 min -13,5 C -8,8 C 7,7 km/h (2 Bft)
25.02.2018 13:00 -5,3 C 0,8 C -5,2 C -3,6 C -4,5 C 1,7 C 54 % 57 % 1030,2 hPa 0,0 l/m 8,9 km/h (2 Bft) NO 45 0 min -13,1 C -8,3 C 10,8 km/h (2 Bft)
25.02.2018 13:05 -5,3 C 0,8 C -5,3 C -3,7 C -5,0 C 1,6 C 53 % 56 % 1030,2 hPa 0,0 l/m 9,2 km/h (2 Bft) O-NO 67 0 min -13,3 C -9,0 C 12,9 km/h (3 Bft)
25.02.2018 13:10 -5,3 C 0,8 C -5,3 C -4,0 C -5,3 C 1,3 C 53 % 56 % 1030,2 hPa 0,0 l/m 9,7 km/h (2 Bft) NO 45 0 min -13,3 C -9,6 C 5,1 km/h (1 Bft)
25.02.2018 13:15 -5,1 C 0,8 C -5,1 C -3,4 C -3,4 C 1,7 C 55 % 57 % 1030,2 hPa 0,0 l/m 7,2 km/h (2 Bft) O-NO 67 0 min -12,7 C -6,4 C 5,1 km/h (1 Bft)
25.02.2018 13:20 -4,9 C 0,8 C -5,1 C -2,7 C -2,7 C 2,2 C 54 % 57 % 1030,2 hPa 0,0 l/m 6,0 km/h (2 Bft) O-NO 67 0 min -12,7 C -5,1 C 7,7 km/h (2 Bft)
25.02.2018 13:25 -4,9 C 0,8 C -4,9 C -2,4 C -2,4 C 2,5 C 54 % 57 % 1030,2 hPa 0,0 l/m 6,3 km/h (2 Bft) O-NO 67 0 min -12,7 C -4,9 C 8,0 km/h (2 Bft)
25.02.2018 13:30 -4,8 C 0,8 C -4,9 C -2,4 C -2,4 C 2,4 C 54 % 57 % 1030,2 hPa 0,0 l/m 6,3 km/h (2 Bft) O-NO 67 0 min -12,6 C -4,9 C 6,9 km/h (2 Bft)
25.02.2018 13:35 -4,9 C 0,8 C -4,9 C -2,6 C -2,6 C 2,3 C 54 % 57 % 1030,2 hPa 0,0 l/m 6,4 km/h (2 Bft) NO 45 0 min -12,7 C -5,2 C 8,7 km/h (2 Bft)
25.02.2018 13:40 -4,9 C 0,8 C -4,9 C -2,7 C -2,7 C 2,2 C 53 % 56 % 1030,2 hPa 0,0 l/m 6,6 km/h (2 Bft) NO 45 0 min -13,0 C -5,4 C 9,0 km/h (2 Bft)
25.02.2018 13:45 -4,9 C 0,8 C -4,9 C -3,2 C -3,2 C 1,7 C 52 % 55 % 1030,2 hPa 0,0 l/m 7,1 km/h (2 Bft) N-NO 22 0 min -13,2 C -6,2 C 9,2 km/h (2 Bft)
25.02.2018 13:50 -4,8 C 0,8 C -4,8 C -3,1 C -3,1 C 1,7 C 53 % 56 % 1030,2 hPa 0,0 l/m 7,1 km/h (2 Bft) O-NO 67 0 min -12,9 C -6,0 C 12,2 km/h (2 Bft)
25.02.2018 13:55 -4,7 C 0,8 C -4,8 C -1,7 C -1,7 C 3,0 C 53 % 56 % 1030,2 hPa 0,0 l/m 5,8 km/h (2 Bft) NO 45 0 min -12,8 C -3,9 C 9,5 km/h (2 Bft)
25.02.2018 14:00 -4,5 C 0,8 C -4,7 C -1,7 C -1,7 C 2,8 C 53 % 55 % 1030,2 hPa 0,0 l/m 5,8 km/h (2 Bft) O-NO 67 0 min -12,6 C -3,9 C 5,5 km/h (1 Bft)
25.02.2018 14:05 -4,5 C 0,8 C -4,5 C -1,7 C -1,7 C 2,8 C 53 % 56 % 1030,2 hPa 0,0 l/m 6,1 km/h (2 Bft) O-NO 67 0 min -12,6 C -4,0 C 11,9 km/h (2 Bft)
25.02.2018 14:11 -4,5 C 0,8 C -4,7 C -2,2 C -2,2 C 2,3 C 52 % 55 % 1030,2 hPa 0,0 l/m 6,4 km/h (2 Bft) N 0 0 min -12,8 C -4,7 C 7,6 km/h (2 Bft)
25.02.2018 14:26 -4,5 C 0,8 C -4,5 C -1,9 C -1,9 C 2,6 C 51 % 53 % 1029,9 hPa 0,0 l/m 6,3 km/h (2 Bft) O-SO 112 0 min -13,1 C -4,3 C 7,4 km/h (2 Bft)
25.02.2018 14:35 -4,4 C 0,8 C -4,5 C -2,0 C -2,0 C 2,4 C 50 % 52 % 1029,9 hPa 0,0 l/m 6,6 km/h (2 Bft) O-NO 67 0 min -13,2 C -4,6 C 10,1 km/h (2 Bft)
25.02.2018 14:40 -4,3 C 0,8 C -4,3 C -2,2 C -2,2 C 2,1 C 50 % 53 % 1029,9 hPa 0,0 l/m 6,8 km/h (2 Bft) NO 45 0 min -13,1 C -4,9 C 8,9 km/h (2 Bft)
25.02.2018 14:45 -4,1 C 0,8 C -4,1 C -1,9 C -1,9 C 2,2 C 50 % 52 % 1029,9 hPa 0,0 l/m 6,4 km/h (2 Bft) O 90 0 min -12,9 C -4,4 C 6,6 km/h (2 Bft)
25.02.2018 14:50 -4,2 C 0,8 C -4,3 C -1,8 C -1,8 C 2,4 C 49 % 51 % 1029,9 hPa 0,0 l/m 6,1 km/h (2 Bft) O-NO 67 0 min -13,3 C -4,1 C 10,3 km/h (2 Bft)
25.02.2018 14:55 -4,1 C 0,8 C -4,3 C -1,2 C -1,2 C 2,9 C 49 % 52 % 1029,9 hPa 0,0 l/m 5,5 km/h (1 Bft) W 270 0 min -13,2 C -3,2 C 5,1 km/h (1 Bft)
25.02.2018 15:00 -4,1 C 0,8 C -4,3 C -1,2 C -1,2 C 2,9 C 49 % 51 % 1029,9 hPa 0,0 l/m 5,5 km/h (1 Bft) NO 45 0 min -13,2 C -3,2 C 6,8 km/h (2 Bft)
25.02.2018 15:05 -4,2 C 0,8 C -4,3 C -1,4 C -1,4 C 2,8 C 49 % 51 % 1029,9 hPa 0,0 l/m 5,3 km/h (1 Bft) NO 45 0 min -13,3 C -3,3 C 3,2 km/h (1 Bft)
25.02.2018 15:10 -4,1 C 0,8 C -4,1 C -0,8 C -0,8 C 3,3 C 48 % 51 % 1029,9 hPa 0,0 l/m 4,5 km/h (1 Bft) NO 45 5 min -13,4 C -0,8 C 4,7 km/h (1 Bft)
25.02.2018 15:15 -3,9 C 0,8 C -4,2 C -0,3 C -0,3 C 3,6 C 48 % 51 % 1029,9 hPa 0,0 l/m 4,2 km/h (1 Bft) N-NO 22 5 min -13,3 C -0,3 C 5,8 km/h (2 Bft)
25.02.2018 15:20 -4,0 C 0,8 C -4,1 C -0,4 C -0,4 C 3,6 C 48 % 51 % 1029,9 hPa 0,0 l/m 4,3 km/h (1 Bft) O-NO 67 5 min -13,4 C -0,4 C 5,8 km/h (2 Bft)
25.02.2018 15:25 -4,1 C 0,8 C -4,1 C -1,0 C -1,0 C 3,1 C 47 % 50 % 1029,9 hPa 0,0 l/m 5,0 km/h (1 Bft) O-NO 67 0 min -13,7 C -2,7 C 6,0 km/h (2 Bft)
25.02.2018 15:30 -4,1 C 0,8 C -4,1 C -1,4 C -1,4 C 2,7 C 47 % 50 % 1029,9 hPa 0,0 l/m 5,3 km/h (1 Bft) O-NO 67 0 min -13,7 C -3,3 C 4,2 km/h (1 Bft)
25.02.2018 15:35 -4,1 C 0,8 C -4,1 C -2,2 C -2,2 C 1,9 C 47 % 50 % 1029,9 hPa 0,0 l/m 5,8 km/h (2 Bft) S-SW 202 0 min -13,7 C -4,5 C 4,0 km/h (1 Bft)
25.02.2018 15:40 -4,3 C 0,8 C -4,3 C -2,8 C -2,8 C 1,5 C 47 % 50 % 1029,2 hPa 0,0 l/m 6,4 km/h (2 Bft) N 360 0 min -13,9 C -5,4 C 8,5 km/h (2 Bft)
25.02.2018 15:45 -4,3 C 0,8 C -4,1 C -3,1 C -3,1 C 1,2 C 47 % 50 % 1029,2 hPa 0,0 l/m 6,4 km/h (2 Bft) S-SO 157 0 min -13,9 C -5,8 C 8,9 km/h (2 Bft)
25.02.2018 15:50 -4,3 C 0,8 C -4,3 C -2,8 C -2,8 C 1,5 C 47 % 50 % 1029,2 hPa 0,0 l/m 5,8 km/h (2 Bft) O-NO 67 0 min -13,9 C -5,2 C 4,8 km/h (1 Bft)
25.02.2018 15:55 -4,3 C 0,8 C -4,3 C -3,2 C -3,2 C 1,1 C 47 % 50 % 1029,2 hPa 0,0 l/m 6,3 km/h (2 Bft) O-NO 67 0 min -13,9 C -5,8 C 12,1 km/h (2 Bft)
25.02.2018 16:00 -4,5 C 0,8 C -4,5 C -3,9 C -3,9 C 0,6 C 47 % 50 % 1029,2 hPa 0,0 l/m 7,1 km/h (2 Bft) NO 45 0 min -14,1 C -7,0 C 8,9 km/h (2 Bft)
25.02.2018 16:05 -4,5 C 0,8 C -4,5 C -3,5 C -4,8 C 1,0 C 47 % 50 % 1029,2 hPa 0,0 l/m 7,9 km/h (2 Bft) NO 45 0 min -14,1 C -8,3 C 9,0 km/h (2 Bft)
25.02.2018 16:11 -4,5 C 0,8 C -4,5 C -4,0 C -5,1 C 0,5 C 47 % 50 % 1029,2 hPa 0,0 l/m 7,9 km/h (2 Bft) N 0 0 min -14,1 C -8,7 C 13,5 km/h (3 Bft)
25.02.2018 16:26 -4,5 C 0,8 C -4,5 C -3,9 C -3,9 C 0,6 C 48 % 51 % 1029,4 hPa 0,0 l/m 4,7 km/h (1 Bft) O 90 0 min -13,8 C -5,8 C 8,7 km/h (2 Bft)
25.02.2018 16:35 -4,5 C 0,8 C -4,7 C -4,6 C -4,9 C 0,0 C 50 % 53 % 1029,4 hPa 0,0 l/m 5,3 km/h (1 Bft) NO 45 0 min -13,3 C -7,3 C 5,3 km/h (1 Bft)
25.02.2018 16:40 -4,5 C 0,8 C -4,8 C -4,6 C -4,9 C 0,0 C 50 % 54 % 1029,2 hPa 0,0 l/m 5,0 km/h (1 Bft) O-NO 67 0 min -13,3 C -7,1 C 6,9 km/h (2 Bft)
25.02.2018 16:45 -4,5 C 0,8 C -4,7 C -4,7 C -5,2 C 0,0 C 51 % 54 % 1029,2 hPa 0,0 l/m 4,8 km/h (1 Bft) O-NO 67 0 min -13,1 C -7,4 C 7,6 km/h (2 Bft)
25.02.2018 16:50 -4,7 C 0,8 C -4,9 C -5,2 C -6,1 C 0,0 C 51 % 55 % 1029,2 hPa 0,0 l/m 5,5 km/h (1 Bft) O-NO 67 0 min -13,3 C -8,8 C 7,9 km/h (2 Bft)
25.02.2018 16:55 -4,8 C 0,8 C -4,9 C -5,3 C -6,4 C 0,0 C 51 % 55 % 1029,2 hPa 0,0 l/m 5,8 km/h (2 Bft) O-NO 67 0 min -13,3 C -9,3 C 9,0 km/h (2 Bft)
25.02.2018 17:00 -4,9 C 0,8 C -4,9 C -5,7 C -7,3 C 0,0 C 51 % 55 % 1029,5 hPa 0,0 l/m 6,8 km/h (2 Bft) NO 45 0 min -13,4 C -10,8 C 8,2 km/h (2 Bft)
25.02.2018 17:05 -4,9 C 0,8 C -5,1 C -5,9 C -7,8 C 0,0 C 51 % 55 % 1029,5 hPa 0,0 l/m 7,6 km/h (2 Bft) O-NO 67 0 min -13,4 C -11,7 C 9,5 km/h (2 Bft)
25.02.2018 17:10 -4,9 C 0,8 C -4,9 C -5,8 C -7,7 C 0,0 C 52 % 56 % 1029,5 hPa 0,0 l/m 6,4 km/h (2 Bft) N-NO 22 0 min -13,2 C -11,1 C 6,4 km/h (2 Bft)
25.02.2018 17:15 -5,1 C 0,8 C -4,9 C -6,1 C -8,0 C 0,0 C 52 % 56 % 1029,5 hPa 0,0 l/m 6,8 km/h (2 Bft) NO 45 0 min -13,4 C -11,6 C 8,0 km/h (2 Bft)
25.02.2018 17:20 -5,1 C 0,8 C -5,1 C -6,2 C -8,4 C 0,0 C 52 % 56 % 1029,5 hPa 0,0 l/m 6,8 km/h (2 Bft) NO 45 0 min -13,4 C -12,1 C 6,0 km/h (2 Bft)
25.02.2018 17:25 -5,1 C 0,8 C -5,3 C -6,1 C -8,2 C 0,0 C 53 % 57 % 1029,5 hPa 0,0 l/m 6,0 km/h (2 Bft) O-NO 67 0 min -13,2 C -11,5 C 5,0 km/h (1 Bft)
25.02.2018 17:30 -5,2 C 0,8 C -5,3 C -6,1 C -7,9 C 0,0 C 53 % 58 % 1029,5 hPa 0,0 l/m 5,1 km/h (1 Bft) NO 45 0 min -13,3 C -10,6 C 3,5 km/h (1 Bft)
25.02.2018 17:35 -5,3 C 0,8 C -5,7 C -6,1 C -7,6 C 0,0 C 54 % 58 % 1029,5 hPa 0,0 l/m 3,4 km/h (1 Bft) NO 45 0 min -13,1 C -7,6 C 5,1 km/h (1 Bft)
25.02.2018 17:40 -5,3 C 0,8 C -5,7 C -6,1 C -7,8 C 0,0 C 54 % 59 % 1029,3 hPa 0,0 l/m 3,4 km/h (1 Bft) NO 45 0 min -13,1 C -7,8 C 4,5 km/h (1 Bft)
25.02.2018 17:45 -5,6 C 0,8 C -5,7 C -6,6 C -8,6 C 0,0 C 55 % 59 % 1029,3 hPa 0,0 l/m 4,0 km/h (1 Bft) O-NO 67 0 min -13,2 C -8,6 C 5,6 km/h (1 Bft)
25.02.2018 17:50 -5,6 C 0,8 C -5,9 C -6,5 C -8,4 C 0,0 C 55 % 60 % 1029,3 hPa 0,0 l/m 3,7 km/h (1 Bft) NO 45 0 min -13,2 C -8,4 C 3,5 km/h (1 Bft)
25.02.2018 17:55 -5,7 C 0,7 C -6,0 C -6,7 C -8,8 C 0,0 C 56 % 61 % 1029,3 hPa 0,0 l/m 3,9 km/h (1 Bft) O-NO 67 0 min -13,0 C -8,8 C 5,1 km/h (1 Bft)
25.02.2018 18:00 -5,7 C 0,7 C -6,0 C -6,8 C -8,9 C 0,0 C 56 % 61 % 1029,6 hPa 0,0 l/m 3,9 km/h (1 Bft) N-NO 22 0 min -13,0 C -8,9 C 4,0 km/h (1 Bft)
25.02.2018 18:05 -5,7 C 0,7 C -6,1 C -6,8 C -9,0 C 0,0 C 56 % 61 % 1029,6 hPa 0,0 l/m 3,9 km/h (1 Bft) NO 45 0 min -13,0 C -9,0 C 4,3 km/h (1 Bft)
25.02.2018 18:11 -5,9 C 0,7 C -6,1 C -6,9 C -8,8 C 0,0 C 56 % 61 % 1029,6 hPa 0,0 l/m 3,5 km/h (1 Bft) N 0 0 min -13,2 C -8,8 C 4,7 km/h (1 Bft)
25.02.2018 18:26 -6,0 C 0,7 C -6,3 C -7,0 C -8,9 C 0,0 C 57 % 62 % 1029,9 hPa 0,0 l/m 3,4 km/h (1 Bft) NO 45 0 min -13,1 C -8,9 C 3,1 km/h (1 Bft)
25.02.2018 18:35 -6,1 C 0,7 C -6,6 C -6,9 C -8,5 C 0,0 C 57 % 63 % 1029,9 hPa 0,0 l/m 2,6 km/h (1 Bft) NO 45 0 min -13,2 C -8,5 C 2,3 km/h (1 Bft)
25.02.2018 18:40 -6,1 C 0,7 C -6,7 C -6,7 C -7,9 C 0,0 C 57 % 63 % 1030,0 hPa 0,0 l/m 1,9 km/h (1 Bft) NO 45 0 min -13,2 C -7,9 C 1,6 km/h (1 Bft)
25.02.2018 18:45 -6,3 C 0,7 C -6,9 C -6,9 C -8,1 C 0,0 C 57 % 63 % 1030,0 hPa 0,0 l/m 1,1 km/h (1 Bft) O-NO 67 0 min -13,4 C -8,1 C 1,6 km/h (1 Bft)
25.02.2018 18:50 -6,4 C 0,7 C -6,9 C -7,0 C -8,2 C 0,0 C 58 % 63 % 1030,0 hPa 0,0 l/m 1,0 km/h (0 Bft) O-NO 67 0 min -13,3 C -8,2 C 0,0 km/h (0 Bft)
25.02.2018 18:55 -6,5 C 0,7 C -7,2 C -7,1 C -8,4 C 0,0 C 58 % 64 % 1030,0 hPa 0,0 l/m 0,6 km/h (0 Bft) NO 45 0 min -13,4 C -8,4 C 1,8 km/h (1 Bft)
25.02.2018 19:00 -6,6 C 0,7 C -7,3 C -7,3 C -8,6 C 0,0 C 58 % 64 % 1030,0 hPa 0,0 l/m 0,6 km/h (0 Bft) NO 45 0 min -13,5 C -8,6 C 1,8 km/h (1 Bft)
25.02.2018 19:05 -6,7 C 0,7 C -7,3 C -7,3 C -8,6 C 0,0 C 59 % 65 % 1030,0 hPa 0,0 l/m 1,0 km/h (0 Bft) O-NO 67 0 min -13,3 C -8,6 C 0,0 km/h (0 Bft)
25.02.2018 19:10 -6,8 C 0,7 C -7,3 C -7,4 C -8,7 C 0,0 C 59 % 65 % 1030,0 hPa 0,0 l/m 1,1 km/h (1 Bft) NO 45 0 min -13,4 C -8,7 C 1,8 km/h (1 Bft)
25.02.2018 19:15 -6,9 C 0,7 C -7,7 C -7,5 C -8,8 C 0,0 C 60 % 65 % 1030,0 hPa 0,0 l/m 0,8 km/h (0 Bft) NO 45 0 min -13,3 C -8,8 C 0,0 km/h (0 Bft)
25.02.2018 19:20 -6,9 C 0,7 C -7,7 C -7,6 C -9,0 C 0,0 C 60 % 66 % 1029,6 hPa 0,0 l/m 0,6 km/h (0 Bft) O-NO 67 0 min -13,3 C -9,0 C 2,1 km/h (1 Bft)
25.02.2018 19:25 -7,1 C 0,7 C -7,7 C -7,8 C -9,1 C 0,0 C 60 % 66 % 1029,6 hPa 0,0 l/m 0,5 km/h (0 Bft) O-NO 67 0 min -13,5 C -9,1 C 0,0 km/h (0 Bft)
25.02.2018 19:30 -7,2 C 0,7 C -7,9 C -7,8 C -9,1 C 0,0 C 61 % 66 % 1029,6 hPa 0,0 l/m 0,3 km/h (0 Bft) O-NO 67 0 min -13,4 C -9,1 C 0,0 km/h (0 Bft)
25.02.2018 19:35 -7,3 C 0,7 C -8,1 C -8,0 C -9,3 C 0,0 C 61 % 67 % 1029,6 hPa 0,0 l/m 0,2 km/h (0 Bft) NO 45 0 min -13,5 C -9,3 C 0,0 km/h (0 Bft)
25.02.2018 19:40 -7,3 C 0,7 C -8,3 C -8,0 C -9,4 C 0,0 C 62 % 67 % 1029,6 hPa 0,0 l/m 0,2 km/h (0 Bft) NO 45 0 min -13,3 C -9,4 C 0,0 km/h (0 Bft)
25.02.2018 19:45 -7,5 C 0,7 C -8,4 C -8,2 C -9,5 C 0,0 C 62 % 68 % 1029,6 hPa 0,0 l/m 0,0 km/h (0 Bft) NO 45 0 min -13,5 C -9,5 C 0,0 km/h (0 Bft)
25.02.2018 19:50 -7,6 C 0,7 C -8,4 C -8,3 C -9,6 C 0,0 C 62 % 68 % 1029,6 hPa 0,0 l/m 0,0 km/h (0 Bft) O-NO 67 0 min -13,6 C -9,6 C 0,0 km/h (0 Bft)
25.02.2018 19:55 -7,7 C 0,7 C -8,5 C -8,4 C -9,7 C 0,0 C 63 % 69 % 1029,6 hPa 0,0 l/m 0,0 km/h (0 Bft) NO 45 0 min -13,5 C -9,7 C 0,0 km/h (0 Bft)
25.02.2018 20:00 -7,8 C 0,7 C -8,5 C -8,5 C -9,8 C 0,0 C 63 % 69 % 1029,6 hPa 0,0 l/m 0,0 km/h (0 Bft) O-NO 67 0 min -13,6 C -9,8 C 0,0 km/h (0 Bft)
25.02.2018 20:05 -7,7 C 0,7 C -8,4 C -8,4 C -9,7 C 0,0 C 64 % 70 % 1029,6 hPa 0,0 l/m 0,2 km/h (0 Bft) NO 45 0 min -13,3 C -9,7 C 1,6 km/h (1 Bft)
25.02.2018 20:11 -7,9 C 0,7 C -8,5 C -8,5 C -9,7 C 0,0 C 64 % 70 % 1029,6 hPa 0,0 l/m 0,6 km/h (0 Bft) N 0 0 min -13,5 C -9,7 C 2,1 km/h (1 Bft)
25.02.2018 20:26 -7,9 C 0,7 C -8,5 C -8,5 C -9,6 C 0,0 C 65 % 71 % 1029,9 hPa 0,0 l/m 1,1 km/h (1 Bft) NO 45 0 min -13,3 C -9,6 C 1,8 km/h (1 Bft)
25.02.2018 20:35 -8,0 C 0,8 C -8,5 C -8,5 C -9,6 C 0,0 C 66 % 71 % 1029,9 hPa 0,0 l/m 1,3 km/h (1 Bft) NO 45 0 min -13,2 C -9,6 C 0,0 km/h (0 Bft)
25.02.2018 20:40 -8,0 C 0,8 C -8,7 C -8,6 C -9,7 C 0,0 C 66 % 71 % 1029,7 hPa 0,0 l/m 0,6 km/h (0 Bft) O-NO 67 0 min -13,2 C -9,7 C 0,0 km/h (0 Bft)
25.02.2018 20:45 -8,1 C 0,8 C -8,9 C -8,7 C -9,8 C 0,0 C 66 % 72 % 1029,7 hPa 0,0 l/m 0,0 km/h (0 Bft) NO 45 0 min -13,3 C -9,8 C 0,0 km/h (0 Bft)
25.02.2018 20:50 -8,1 C 0,8 C -8,9 C -8,7 C -9,8 C 0,0 C 66 % 72 % 1029,7 hPa 0,0 l/m 0,0 km/h (0 Bft) O-NO 67 0 min -13,3 C -9,8 C 0,0 km/h (0 Bft)
25.02.2018 20:55 -8,3 C 0,8 C -9,0 C -8,8 C -9,9 C 0,0 C 66 % 73 % 1029,7 hPa 0,0 l/m 0,0 km/h (0 Bft) NO 45 0 min -13,5 C -9,9 C 0,0 km/h (0 Bft)
25.02.2018 21:00 -8,3 C 0,8 C -8,9 C -8,8 C -9,9 C 0,0 C 67 % 73 % 1029,7 hPa 0,0 l/m 0,0 km/h (0 Bft) NO 45 0 min -13,3 C -9,9 C 0,0 km/h (0 Bft)
25.02.2018 21:05 -8,4 C 0,8 C -9,1 C -8,9 C -10,0 C 0,0 C 67 % 73 % 1029,7 hPa 0,0 l/m 0,0 km/h (0 Bft) NO 45 0 min -13,4 C -10,0 C 0,0 km/h (0 Bft)
25.02.2018 21:10 -8,4 C 0,8 C -9,2 C -8,9 C -10,0 C 0,0 C 67 % 73 % 1029,7 hPa 0,0 l/m 0,0 km/h (0 Bft) O-NO 67 0 min -13,4 C -10,0 C 0,0 km/h (0 Bft)
25.02.2018 21:15 -8,3 C 0,8 C -9,3 C -8,9 C -10,0 C 0,0 C 68 % 73 % 1029,7 hPa 0,0 l/m 0,2 km/h (0 Bft) O-NO 67 0 min -13,1 C -10,0 C 0,0 km/h (0 Bft)
25.02.2018 21:20 -8,5 C 0,8 C -9,3 C -9,0 C -10,0 C 0,0 C 68 % 73 % 1030,1 hPa 0,0 l/m 0,2 km/h (0 Bft) NO 45 0 min -13,3 C -10,0 C 0,0 km/h (0 Bft)
25.02.2018 21:25 -8,5 C 0,8 C -9,5 C -9,1 C -10,2 C 0,0 C 68 % 74 % 1030,1 hPa 0,0 l/m 0,0 km/h (0 Bft) NO 45 0 min -13,3 C -10,2 C 0,0 km/h (0 Bft)
25.02.2018 21:30 -8,5 C 0,8 C -9,5 C -9,1 C -10,2 C 0,0 C 68 % 74 % 1030,1 hPa 0,0 l/m 0,0 km/h (0 Bft) O-NO 67 0 min -13,3 C -10,2 C 0,0 km/h (0 Bft)
25.02.2018 21:35 -8,5 C 0,8 C -9,3 C -9,1 C -10,2 C 0,0 C 68 % 74 % 1030,1 hPa 0,0 l/m 0,3 km/h (0 Bft) NO 45 0 min -13,3 C -10,2 C 0,0 km/h (0 Bft)
25.02.2018 21:40 -8,7 C 0,8 C -9,3 C -9,2 C -10,2 C 0,0 C 68 % 75 % 1030,1 hPa 0,0 l/m 0,3 km/h (0 Bft) O-NO 67 0 min -13,5 C -10,2 C 0,0 km/h (0 Bft)
25.02.2018 21:45 -8,8 C 0,8 C -9,5 C -9,3 C -10,2 C 0,0 C 69 % 75 % 1030,1 hPa 0,0 l/m 0,0 km/h (0 Bft) O-NO 67 0 min -13,4 C -10,2 C 0,0 km/h (0 Bft)
25.02.2018 21:50 -8,8 C 0,8 C -9,6 C -9,3 C -10,3 C 0,0 C 69 % 75 % 1030,1 hPa 0,0 l/m 0,0 km/h (0 Bft) NO 45 0 min -13,4 C -10,3 C 0,0 km/h (0 Bft)
25.02.2018 21:55 -8,8 C 0,8 C -9,7 C -9,4 C -10,5 C 0,0 C 69 % 75 % 1030,1 hPa 0,0 l/m 0,0 km/h (0 Bft) NO 45 0 min -13,4 C -10,5 C 0,0 km/h (0 Bft)
25.02.2018 22:00 -8,8 C 0,8 C -9,7 C -9,4 C -10,5 C 0,0 C 69 % 75 % 1029,5 hPa 0,0 l/m 0,0 km/h (0 Bft) NO 45 0 min -13,4 C -10,5 C 0,0 km/h (0 Bft)
25.02.2018 22:05 -8,8 C 0,8 C -9,7 C -9,4 C -10,6 C 0,0 C 70 % 76 % 1029,5 hPa 0,0 l/m 0,0 km/h (0 Bft) NO 45 0 min -13,3 C -10,6 C 0,0 km/h (0 Bft)
25.02.2018 22:11 -8,8 C 0,8 C -9,7 C -9,4 C -10,6 C 0,0 C 70 % 76 % 1029,5 hPa 0,0 l/m 0,0 km/h (0 Bft) N 0 0 min -13,3 C -10,6 C 0,0 km/h (0 Bft)
25.02.2018 22:26 -8,9 C 0,8 C -9,9 C -9,6 C -10,9 C 0,0 C 70 % 76 % 1029,5 hPa 0,0 l/m 0,0 km/h (0 Bft) NO 45 0 min -13,3 C -10,9 C 0,0 km/h (0 Bft)
25.02.2018 22:35 -8,9 C 0,8 C -10,0 C -9,6 C -11,0 C 0,0 C 71 % 77 % 1029,5 hPa 0,0 l/m 0,0 km/h (0 Bft) NO 45 0 min -13,2 C -11,0 C 0,0 km/h (0 Bft)
25.02.2018 22:40 -9,1 C 0,8 C -10,1 C -9,7 C -11,0 C 0,0 C 71 % 77 % 1029,6 hPa 0,0 l/m 0,0 km/h (0 Bft) NO 45 0 min -13,4 C -11,0 C 0,0 km/h (0 Bft)
25.02.2018 22:45 -9,2 C 0,8 C -10,1 C -9,8 C -11,0 C 0,0 C 71 % 77 % 1029,6 hPa 0,0 l/m 0,0 km/h (0 Bft) O-NO 67 0 min -13,5 C -11,0 C 0,0 km/h (0 Bft)
25.02.2018 22:50 -9,2 C 0,8 C -10,1 C -9,8 C -11,0 C 0,0 C 71 % 77 % 1029,6 hPa 0,0 l/m 0,0 km/h (0 Bft) NO 45 0 min -13,5 C -11,0 C 0,0 km/h (0 Bft)
25.02.2018 22:55 -9,3 C 0,8 C -10,1 C -9,9 C -11,0 C 0,0 C 71 % 78 % 1029,6 hPa 0,0 l/m 0,0 km/h (0 Bft) NO 45 0 min -13,6 C -11,0 C 0,0 km/h (0 Bft)
25.02.2018 23:00 -9,3 C 0,8 C -10,1 C -9,9 C -11,0 C 0,0 C 72 % 78 % 1029,6 hPa 0,0 l/m 0,0 km/h (0 Bft) NO 45 0 min -13,4 C -11,0 C 0,0 km/h (0 Bft)
25.02.2018 23:05 -9,3 C 0,8 C -10,1 C -10,0 C -11,3 C 0,0 C 72 % 78 % 1029,6 hPa 0,0 l/m 0,0 km/h (0 Bft) N-NO 22 0 min -13,4 C -11,3 C 0,0 km/h (0 Bft)
25.02.2018 23:10 -9,3 C 0,8 C -10,1 C -10,0 C -11,3 C 0,0 C 72 % 79 % 1029,6 hPa 0,0 l/m 0,0 km/h (0 Bft) N-NO 22 0 min -13,4 C -11,3 C 0,0 km/h (0 Bft)
25.02.2018 23:15 -9,3 C 0,8 C -10,1 C -10,0 C -11,4 C 0,0 C 72 % 79 % 1029,6 hPa 0,0 l/m 0,0 km/h (0 Bft) O-NO 67 0 min -13,4 C -11,4 C 0,0 km/h (0 Bft)
25.02.2018 23:20 -9,4 C 0,8 C -10,1 C -10,0 C -11,3 C 0,0 C 72 % 79 % 1029,6 hPa 0,0 l/m 0,0 km/h (0 Bft) O-NO 67 0 min -13,5 C -11,3 C 0,0 km/h (0 Bft)
25.02.2018 23:25 -9,5 C 0,8 C -10,1 C -10,1 C -11,4 C 0,0 C 72 % 79 % 1029,6 hPa 0,0 l/m 0,0 km/h (0 Bft) O-NO 67 0 min -13,6 C -11,4 C 0,0 km/h (0 Bft)
25.02.2018 23:30 -9,5 C 0,8 C -10,3 C -10,1 C -11,4 C 0,0 C 73 % 79 % 1029,6 hPa 0,0 l/m 0,0 km/h (0 Bft) O-NO 67 0 min -13,4 C -11,4 C 0,0 km/h (0 Bft)
25.02.2018 23:35 -9,6 C 0,8 C -10,3 C -10,2 C -11,4 C 0,0 C 73 % 79 % 1029,6 hPa 0,0 l/m 0,0 km/h (0 Bft) NO 45 0 min -13,5 C -11,4 C 0,0 km/h (0 Bft)
25.02.2018 23:40 -9,6 C 0,8 C -10,4 C -10,2 C -11,5 C 0,0 C 73 % 79 % 1029,2 hPa 0,0 l/m 0,0 km/h (0 Bft) NO 45 0 min -13,5 C -11,5 C 0,0 km/h (0 Bft)
25.02.2018 23:45 -9,6 C 0,8 C -10,3 C -10,3 C -11,6 C 0,0 C 73 % 79 % 1029,2 hPa 0,0 l/m 0,0 km/h (0 Bft) NO 45 0 min -13,5 C -11,6 C 0,0 km/h (0 Bft)
25.02.2018 23:50 -9,6 C 0,8 C -10,4 C -10,3 C -11,7 C 0,0 C 73 % 79 % 1029,2 hPa 0,0 l/m 0,0 km/h (0 Bft) NO 45 0 min -13,5 C -11,7 C 0,0 km/h (0 Bft)
25.02.2018 23:55 -9,7 C 0,8 C -10,5 C -10,4 C -11,8 C 0,0 C 74 % 79 % 1029,2 hPa 0,0 l/m 0,0 km/h (0 Bft) N-NO 22 0 min -13,4 C -11,8 C 0,0 km/h (0 Bft)
_ Min-Zeit 06:50 17:55 07:00 06:42 06:31 00:00 15:25 15:25 15:40 - 00:00 - - - 06:50 09:15 00:00
Minimum _ -11,7 C 0,7 C -12,0 C -12,4 C -13,9 C 0,0 C 47 % 50 % 1029,2 hPa - 0,0 km/h (0 Bft) - - - -15,2 C -14,7 C 0,0 km/h (0 Bft)
_ Max-Zeit 15:15 00:00 14:45 15:15 15:15 15:15 08:05 08:05 02:00 00:00 13:10 - - 08:30 10:46 15:15 12:26
Maximum _ -3,9 C 1,0 C -4,1 C -0,3 C -0,3 C 3,6 C 79 % 83 % 1031,8 hPa 0,0 l/m 9,7 km/h
NO (2 Bft)
- - 8 min -11,2 C -0,3 C 20,8 km/h
NO (4 Bft)
Durchschnitt _ -7,8 C 0,8 C -7,9 C -7,9 C -8,9 C 0,4 C 66 % 70 % 1030,4 hPa #0,0 l/m 3,0 km/h (1 Bft) NO - #23 min. -13,2 C -9,9 C 3,8 km/h (1 Bft)
2018 www.wetterstation-wechselburg.de